Volver al catálogo

COSMOS 1365

ActivoMilitarLEO
NORAD 13175·PAYLOAD·🇷🇺 Russia

Lanzado May 14, 1982 desde Baikonur Cosmodrome

Loading…

Próximos Pases (próximas 24 horas)

TLE

ActualizadoSource: Space-Track

Época: Sep 14, 2026, 11:45 UTC

1 13175U 82043A   26257.49013649 -.00000069  00000-0  16738-4 0  9997
2 13175  65.0707 332.4172 0054768 358.2754  13.8224 13.89786685252370

Sigue COSMOS 1365 en tiempo real con AllMySat

Download on the App Store